Moline, IL

11:15 PM CDT on April 29, 2017 (GMT -0500)
Quad-City International

Weather History for KMLI - December, 2012

Change the Weather History Date:

Saturday, December 1, 2012

  Actual Average Record
Temperature  
Mean Temperature 45 °F 32 °F  
Max Temperature 61 °F 40 °F 63 °F (1962)
Min Temperature 28 °F 23 °F -8 °F (1893)
Degree Days  
Heating Degree Days 20 33  
Month to date heating degree days 20 33  
Since 1 July heating degree days 1365 1264  
Cooling Degree Days 0 0  
Month to date cooling degree days 0 0  
Year to date cooling degree days 1208 1004  
Moisture  
Dew Point 41 °F    
Average Humidity 84    
Maximum Humidity 96    
Minimum Humidity 72    
Precipitation  
Precipitation 0.00 in 0.09 in 1.52 in (1985)
Month to date precipitation 0.00 0.09  
Year to date precipitation 24.58 35.87  
Snow  
Snow 0.00 in 0.20 in - ()
Month to date snowfall 0.0 0.2  
Since 1 July snowfall T 1.4  
Snow Depth 0.00 in    
Sea Level Pressure  
Sea Level Pressure 29.96 in    
Wind  
Wind Speed 8 mph (SE)    
Max Wind Speed 16 mph    
Max Gust Speed 21 mph    
Visibility 6 miles    
Events      
T = Trace of Precipitation, MM = Missing Value Source: NWS Daily Summary

Daily Weather History Graph

Daily Weather History Graph

Search for Another Location

Airport or City:

Trip Planner

Search our weather history database for the weather conditions in past years. The results will help you decide how hot, cold, wet, or windy it might be!

Date:

Astronomy

Dec. 01, 2012 Rise Set
Actual Time 7:09 AM CST 4:33 PM CST
Civil Twilight 6:38 AM CST 5:03 PM CST
Nautical Twilight 6:04 AM CST 5:38 PM CST
Astronomical Twilight 5:30 AM CST 6:11 PM CST
Moon 7:23 PM CST (12/1) 9:21 AM CST (12/1)
Length of Visible Light 10h 25m
Length of Day
9h 23m
Waning Gibbous, 91% of the Moon is Illuminated
Dec 1
Waning Gibbous
Dec 6
Last Quarter
Dec 13
New
Dec 19
First Quarter
Dec 28
Full

Hourly Weather History & Observations

Time (CST) Temp. Windchill Dew Point Humidity Pressure Visibility Wind Dir Wind Speed Gust Speed Precip Events Conditions
12:52 AM 34.0 °F 29.8 °F 32.0 °F 92% 30.11 in 5.0 mi ENE 4.6 mph - N/A   Clear
1:52 AM 30.0 °F 24.1 °F 28.0 °F 92% 30.11 in 4.0 mi East 5.8 mph - N/A   Clear
2:52 AM 28.0 °F 24.2 °F 27.0 °F 96% 30.09 in 3.0 mi East 3.5 mph - N/A   Clear
3:18 AM 28.4 °F 22.2 °F 28.4 °F 100% 30.07 in 2.5 mi ESE 5.8 mph - N/A   Clear
3:52 AM 30.0 °F 25.2 °F 28.9 °F 96% 30.08 in 2.5 mi East 4.6 mph - N/A   Clear
4:06 AM 28.4 °F 24.6 °F 28.4 °F 100% 30.07 in 3.0 mi ESE 3.5 mph - N/A   Clear
4:39 AM 28.4 °F 23.3 °F 28.4 °F 100% 30.06 in 2.5 mi East 4.6 mph - N/A   Clear
4:52 AM 28.0 °F 22.8 °F 27.0 °F 96% 30.07 in 3.0 mi East 4.6 mph - N/A   Scattered Clouds
5:01 AM 30.2 °F 25.4 °F 28.4 °F 93% 30.05 in 2.5 mi East 4.6 mph - N/A   Mostly Cloudy
5:12 AM 30.2 °F 24.3 °F 30.2 °F 100% 30.04 in 3.0 mi East 5.8 mph - N/A   Overcast
5:21 AM 32.0 °F 27.5 °F 30.2 °F 93% 30.04 in 2.5 mi ENE 4.6 mph - N/A   Overcast
5:28 AM 32.0 °F 26.4 °F 30.2 °F 93% 30.04 in 3.0 mi East 5.8 mph - N/A   Overcast
5:52 AM 33.1 °F 27.7 °F 30.9 °F 92% 30.05 in 4.0 mi ENE 5.8 mph - N/A   Mostly Cloudy
6:52 AM 32.0 °F 26.4 °F 30.0 °F 92% 30.04 in 5.0 mi East 5.8 mph - N/A   Clear
7:52 AM 34.0 °F 28.8 °F 32.0 °F 92% 30.03 in 4.0 mi East 5.8 mph - N/A   Clear
8:52 AM 43.0 °F 40.3 °F 39.0 °F 86% 30.01 in 5.0 mi SE 4.6 mph - N/A   Clear
9:52 AM 46.9 °F - 43.0 °F 86% 29.99 in 4.0 mi SE 5.8 mph - N/A   Scattered Clouds
10:31 AM 51.8 °F - 46.4 °F 82% 29.98 in 7.0 mi South 4.6 mph - N/A   Mostly Cloudy
10:52 AM 53.1 °F - 46.9 °F 80% 29.99 in 7.0 mi SSW 6.9 mph - N/A   Overcast
12:52 PM 55.9 °F - 48.9 °F 77% 29.92 in 7.0 mi South 9.2 mph - 0.01 in   Overcast
1:52 PM 57.9 °F - 50.0 °F 75% 29.90 in 8.0 mi South 12.7 mph - N/A   Overcast
1:59 PM 57.2 °F - 50.0 °F 77% 29.89 in 8.0 mi South 10.4 mph - N/A   Overcast
2:07 PM 57.2 °F - 51.8 °F 82% 29.88 in 8.0 mi South 11.5 mph - N/A   Overcast
2:52 PM 57.9 °F - 51.1 °F 78% 29.88 in 8.0 mi South 9.2 mph - 0.01 in   Overcast
3:28 PM 59.0 °F - 51.8 °F 77% 29.87 in 8.0 mi South 9.2 mph - N/A   Overcast
3:52 PM 59.0 °F - 52.0 °F 78% 29.88 in 8.0 mi South 10.4 mph - N/A   Overcast
4:52 PM 59.0 °F - 52.0 °F 78% 29.87 in 10.0 mi South 10.4 mph - 0.01 in   Overcast
5:52 PM 60.1 °F - 53.1 °F 78% 29.86 in 10.0 mi South 10.4 mph - N/A   Overcast
6:52 PM 60.1 °F - 52.0 °F 75% 29.86 in 10.0 mi South 12.7 mph - N/A   Overcast
7:52 PM 60.1 °F - 52.0 °F 75% 29.86 in 10.0 mi South 11.5 mph 18.4 mph N/A   Overcast
8:52 PM 61.0 °F - 52.0 °F 72% 29.85 in 10.0 mi South 11.5 mph - N/A   Overcast
9:52 PM 60.1 °F - 52.0 °F 75% 29.84 in 10.0 mi South 10.4 mph - N/A   Overcast
10:52 PM 59.0 °F - 53.1 °F 81% 29.83 in 10.0 mi South 11.5 mph 19.6 mph N/A   Overcast
11:52 PM 59.0 °F - 53.1 °F 81% 29.84 in 10.0 mi SSW 9.2 mph - N/A   Overcast